Back to catalog

FLYLAB 2

AliveScienceSSO
NORAD 68503·PAYLOAD·🇫🇷 France

Launched Mar 30, 2026 from Vandenberg Space Force Base

Loading…

Next Passes (next 24 hours)

TLE

FreshSource: Space-Track

Epoch: Sep 14, 2026, 08:18 UTC

1 68503U 26067CR  26257.34641112  .00001309  00000-0  12810-3 0  9995
2 68503  97.7670 214.0014 0007555 135.3237 224.8593 14.94002829 25007

Track FLYLAB 2 in real time with AllMySat

Download on the App Store